Location: Geelbroek
(52.9503°N, 6.5712°E)
Time: 05:45:22
(UTC+00:00)

Cosmos 2360 Rocket - Pass Details

Date: 15 May 2026
Orbit: 831 x 845 km, 71.0° (Epoch: 6 June)

Event Time Altitude Azimuth Distance (km) Brightness Sun altitude
Rises 21:44:02 0° 324° (NW) 3,417 7.2 -14.4°
Reaches altitude 10° 21:46:38 10° 317° (NW) 2,478 5.9 -14.6°
Maximum altitude 21:51:49 38° 252° (WSW) 1,279 3.2 -14.9°
Enters shadow 21:55:44 16° 192° (SSW) 2,047 3.7 -15.2°
